When you browse on this site, cookies collect data to enhance your experience and personalize the content and advertising you see.
Visit our Privacy Policy to learn more. By continuing to use the site, you agree to this use of cookies and data.
  • In Österreich
  • Länderverzeichnis
  • Für 7 Tage
  • Wassertemperatur
  • Satellitenkarten
  • Wetterkarte
  • News
  • Widgets
  • user-avatar
    Anmelden

    Stündliche Wetter Stoughton

    Heute, 23 Juli, Dienstag

    Zeit Temperatur Niederschläge Wind Luftdruck Luftfeuchtigkeit
    00:00 +17°C° 0.6 mm 5 m/S 751 mmHg 94%
    01:00 +17°C° 0.6 mm 5 m/S 751 mmHg 94%
    02:00 +18°C° 0.8 mm 4 m/S 751 mmHg 94%
    03:00 +18°C° 0.8 mm 4 m/S 751 mmHg 95%
    04:00 +18°C° 0.8 mm 3 m/S 751 mmHg 95%
    05:00 +18°C° 0.8 mm 3 m/S 751 mmHg 95%
    06:00 +19°C° 0.8 mm 3 m/S 751 mmHg 95%
    07:00 +19°C° 0.8 mm 3 m/S 751 mmHg 95%
    08:00 +19°C° 4.8 mm 3 m/S 751 mmHg 95%
    09:00 +19°C° 4.8 mm 4 m/S 751 mmHg 96%
    10:00 +19°C° 4.8 mm 4 m/S 751 mmHg 96%
    11:00 +19°C° 2.7 mm 4 m/S 751 mmHg 95%
    12:00 +19°C° 2.7 mm 4 m/S 751 mmHg 94%
    13:00 +19°C° 2.7 mm 3 m/S 751 mmHg 93%
    14:00 +19°C° 0.5 mm 3 m/S 752 mmHg 93%
    15:00 +19°C° 0.5 mm 3 m/S 752 mmHg 93%
    16:00 +19°C° 0.5 mm 2 m/S 752 mmHg 93%
    17:00 +19°C° 0.3 mm 2 m/S 752 mmHg 93%
    18:00 +20°C° 0.3 mm 1 m/S 753 mmHg 93%
    19:00 +20°C° 0.3 mm 1 m/S 753 mmHg 92%
    20:00 +20°C° 0 mm 1 m/S 753 mmHg 92%
    21:00 +19°C° 0 mm 1 m/S 754 mmHg 92%
    22:00 +17°C° 0 mm 0 m/S 754 mmHg 91%
    23:00 +17°C° 0 mm 0 m/S 754 mmHg 91%

    Morgen, 24 Juli, Mittwoch

    Zeit Temperatur Niederschläge Wind Luftdruck Luftfeuchtigkeit
    00:00 +19°C° 0 mm 1 m/S 753 mmHg 91%
    01:00 +19°C° 0 mm 1 m/S 753 mmHg 91%
    02:00 +19°C° 0.2 mm 1 m/S 753 mmHg 92%
    03:00 +19°C° 0.2 mm 1 m/S 753 mmHg 93%
    04:00 +19°C° 0.2 mm 1 m/S 752 mmHg 93%
    05:00 +19°C° 0.1 mm 1 m/S 753 mmHg 92%
    06:00 +18°C° 0.1 mm 2 m/S 753 mmHg 92%
    07:00 +18°C° 0.1 mm 2 m/S 754 mmHg 91%
    08:00 +20°C° 0 mm 2 m/S 754 mmHg 84%
    09:00 +21°C° 0 mm 2 m/S 754 mmHg 77%
    10:00 +23°C° 0 mm 2 m/S 754 mmHg 70%
    11:00 +24°C° 0 mm 2 m/S 754 mmHg 62%
    12:00 +26°C° 0 mm 2 m/S 754 mmHg 55%
    13:00 +27°C° 0 mm 3 m/S 754 mmHg 47%
    14:00 +27°C° 0 mm 2 m/S 754 mmHg 49%
    15:00 +27°C° 0 mm 2 m/S 754 mmHg 51%
    16:00 +26°C° 0 mm 2 m/S 754 mmHg 52%
    17:00 +25°C° 0 mm 2 m/S 754 mmHg 59%
    18:00 +24°C° 0 mm 2 m/S 755 mmHg 65%
    19:00 +21°C° 0 mm 2 m/S 755 mmHg 71%
    20:00 +20°C° 0 mm 2 m/S 755 mmHg 75%
    21:00 +20°C° 0 mm 1 m/S 756 mmHg 79%
    22:00 +20°C° 0 mm 1 m/S 756 mmHg 83%
    23:00 +19°C° 0 mm 1 m/S 756 mmHg 85%

    übermorgen, 25 Juli, Donnerstag

    Zeit Temperatur Niederschläge Wind Luftdruck Luftfeuchtigkeit
    00:00 +19°C° 0 mm 1 m/S 756 mmHg 87%
    01:00 +19°C° 0 mm 1 m/S 757 mmHg 88%
    02:00 +19°C° 0 mm 1 m/S 757 mmHg 87%
    03:00 +19°C° 0 mm 1 m/S 757 mmHg 85%
    04:00 +19°C° 0 mm 1 m/S 757 mmHg 83%
    05:00 +20°C° 0 mm 1 m/S 757 mmHg 75%
    06:00 +21°C° 0 mm 1 m/S 758 mmHg 67%
    07:00 +22°C° 0 mm 1 m/S 758 mmHg 59%
    08:00 +24°C° 0 mm 1 m/S 758 mmHg 53%
    09:00 +26°C° 0 mm 1 m/S 758 mmHg 47%
    10:00 +27°C° 0 mm 1 m/S 759 mmHg 41%
    11:00 +27°C° 0 mm 2 m/S 759 mmHg 42%
    12:00 +27°C° 0 mm 2 m/S 759 mmHg 43%
    13:00 +27°C° 0 mm 2 m/S 759 mmHg 44%
    14:00 +27°C° 0 mm 2 m/S 759 mmHg 45%
    15:00 +27°C° 0 mm 2 m/S 759 mmHg 47%
    16:00 +27°C° 0 mm 2 m/S 759 mmHg 48%
    17:00 +26°C° 0 mm 2 m/S 759 mmHg 57%
    18:00 +24°C° 0 mm 3 m/S 759 mmHg 65%
    19:00 +22°C° 0 mm 3 m/S 760 mmHg 73%
    20:00 +21°C° 0 mm 3 m/S 760 mmHg 77%
    21:00 +20°C° 0 mm 3 m/S 760 mmHg 82%
    22:00 +20°C° 0 mm 3 m/S 761 mmHg 86%
    23:00 +19°C° 0 mm 2 m/S 761 mmHg 87%

    26 Juli, Freitag

    Zeit Temperatur Niederschläge Wind Luftdruck Luftfeuchtigkeit
    00:00 +19°C° 0 mm 2 m/S 761 mmHg 87%
    01:00 +19°C° 0 mm 2 m/S 761 mmHg 88%
    02:00 +19°C° 0 mm 2 m/S 761 mmHg 87%
    03:00 +18°C° 0 mm 2 m/S 761 mmHg 85%
    04:00 +18°C° 0 mm 2 m/S 761 mmHg 83%
    05:00 +21°C° 0 mm 1 m/S 761 mmHg 78%
    06:00 +22°C° 0 mm 1 m/S 762 mmHg 72%
    07:00 +24°C° 0 mm 1 m/S 762 mmHg 67%
    08:00 +26°C° 0 mm 1 m/S 762 mmHg 59%
    09:00 +28°C° 0 mm 2 m/S 762 mmHg 52%
    10:00 +30°C° 0 mm 2 m/S 763 mmHg 45%
    11:00 +31°C° 0 mm 2 m/S 762 mmHg 42%
    12:00 +31°C° 0 mm 2 m/S 762 mmHg 40%
    13:00 +33°C° 0 mm 3 m/S 762 mmHg 37%
    14:00 +33°C° 0 mm 3 m/S 762 mmHg 39%
    15:00 +33°C° 0 mm 3 m/S 762 mmHg 41%
    16:00 +33°C° 0 mm 3 m/S 762 mmHg 43%
    17:00 +30°C° 0 mm 4 m/S 762 mmHg 51%
    18:00 +28°C° 0 mm 4 m/S 762 mmHg 60%
    19:00 +26°C° 0 mm 4 m/S 762 mmHg 69%
    20:00 +25°C° 0 mm 4 m/S 762 mmHg 72%
    21:00 +24°C° 0 mm 3 m/S 763 mmHg 76%
    22:00 +22°C° 0 mm 3 m/S 763 mmHg 79%
    23:00 +22°C° 0 mm 3 m/S 763 mmHg 81%

    27 Juli, Samstag

    Zeit Temperatur Niederschläge Wind Luftdruck Luftfeuchtigkeit
    00:00 +21°C° 0 mm 3 m/S 763 mmHg 84%
    01:00 +21°C° 0 mm 2 m/S 763 mmHg 87%
    02:00 +21°C° 0 mm 2 m/S 763 mmHg 88%
    03:00 +20°C° 0 mm 2 m/S 763 mmHg 89%
    04:00 +20°C° 0 mm 2 m/S 763 mmHg 90%
    05:00 +21°C° 0 mm 2 m/S 763 mmHg 86%
    06:00 +24°C° 0 mm 2 m/S 764 mmHg 81%
    07:00 +25°C° 0 mm 2 m/S 764 mmHg 77%
    08:00 +27°C° 0 mm 2 m/S 764 mmHg 68%
    09:00 +29°C° 0 mm 2 m/S 764 mmHg 59%
    10:00 +31°C° 0 mm 2 m/S 764 mmHg 50%
    11:00 +32°C° 0 mm 2 m/S 763 mmHg 47%
    12:00 +34°C° 0 mm 3 m/S 763 mmHg 45%
    13:00 +34°C° 0 mm 3 m/S 763 mmHg 42%
    14:00 +34°C° 0 mm 3 m/S 763 mmHg 44%
    15:00 +33°C° 0 mm 4 m/S 762 mmHg 46%
    16:00 +32°C° 0 mm 4 m/S 762 mmHg 49%
    17:00 +30°C° 0 mm 4 m/S 762 mmHg 56%
    18:00 +28°C° 0 mm 4 m/S 762 mmHg 63%
    19:00 +26°C° 0 mm 4 m/S 762 mmHg 70%
    20:00 +25°C° 0 mm 4 m/S 762 mmHg 70%
    21:00 +25°C° 0 mm 4 m/S 762 mmHg 71%
    22:00 +23°C° 0 mm 4 m/S 762 mmHg 71%
    23:00 +22°C° 0 mm 4 m/S 762 mmHg 71%

    28 Juli, Sonntag

    Zeit Temperatur Niederschläge Wind Luftdruck Luftfeuchtigkeit
    00:00 +22°C° 0 mm 3 m/S 762 mmHg 71%
    01:00 +22°C° 0 mm 3 m/S 762 mmHg 71%
    02:00 +21°C° 0 mm 3 m/S 762 mmHg 73%
    03:00 +21°C° 0 mm 3 m/S 762 mmHg 75%
    04:00 +21°C° 0 mm 3 m/S 762 mmHg 78%
    05:00 +22°C° 0 mm 3 m/S 762 mmHg 75%
    06:00 +24°C° 0 mm 3 m/S 762 mmHg 73%
    07:00 +25°C° 0 mm 3 m/S 762 mmHg 70%
    08:00 +27°C° 0 mm 3 m/S 762 mmHg 63%
    09:00 +29°C° 0 mm 3 m/S 761 mmHg 56%
    10:00 +31°C° 0 mm 2 m/S 761 mmHg 49%
    11:00 +33°C° 0 mm 3 m/S 761 mmHg 46%
    12:00 +34°C° 0 mm 3 m/S 760 mmHg 43%
    13:00 +34°C° 0 mm 3 m/S 760 mmHg 40%
    14:00 +34°C° 0 mm 4 m/S 760 mmHg 42%
    15:00 +33°C° 0 mm 4 m/S 759 mmHg 44%
    16:00 +33°C° 0 mm 4 m/S 759 mmHg 47%
    17:00 +30°C° 0 mm 4 m/S 759 mmHg 54%
    18:00 +28°C° 0 mm 4 m/S 759 mmHg 62%
    19:00 +26°C° 0 mm 4 m/S 759 mmHg 69%
    20:00 +25°C° 0 mm 4 m/S 759 mmHg 70%
    21:00 +25°C° 0 mm 4 m/S 759 mmHg 71%
    22:00 +23°C° 0 mm 4 m/S 759 mmHg 72%
    23:00 +22°C° 0 mm 3 m/S 759 mmHg 72%
    Mehr zeigen